Wetbulb
31.67 25.30 21.54 25.57 27.22 26.93 25.37 23.01 22.60 27.18 32.17 31.35 31.04 31.47 35.49 39.71 40.84 40.84 41.86 43.36 44.21 45.41 48.17 49.25 49.45 50.83 54.05 57.12 58.61 60.13 59.17 58.24 58.14 56.39 54.94 54.26 52.77 52.81 51.83 51.87 51.37 50.40 49.66 50.66
26.25 21.53 27.83 29.27 28.14 25.69 23.96 21.13 21.09 26.14 30.16 29.21 28.66 29.23 34.10 35.68 37.57 40.28 41.33 42.52 43.75 44.90 46.37 47.74 49.06 50.79 53.37 54.90 56.54 58.04 58.99 57.00 56.70 56.24 55.75 56.20 56.67 54.80 53.20 51.85 49.96 49.65 49.09 49.42
21.44 24.79 28.85 26.63 25.24 22.75 22.69 20.31 21.06 21.66 26.64 28.87 27.10 24.93 28.61 34.28 37.54 39.34 40.74 42.71 43.90 44.14 45.08 46.82 48.35 48.36 51.91 52.94 55.20 56.52 58.34 56.44 55.62 56.21 55.35 54.67 53.96 53.46 51.40 50.29 49.25 49.85 48.96 49.23
24.26 28.47 26.08 24.97 23.01 24.51 18.40 25.71 24.31 22.60 21.15 16.25 27.22 14.90 25.54 30.57 33.77 37.02 39.06 41.19 42.24 43.89 45.02 46.07 46.96 46.72 48.89 51.30 53.99 56.08 57.44 55.61 55.13 55.04 53.90 52.84 50.90 49.50 51.51 51.02 50.21 49.97 48.76 48.22
22.83 24.11 23.97 22.64 23.74 26.26 21.55 26.76 24.11 22.93 20.20 20.21 20.51 17.07 22.50 29.82 29.37 34.08 38.53 40.51 42.30 44.16 44.99 45.15 46.00 47.42 48.48 48.49 51.71 54.52 55.82 55.01 54.68 53.89 53.75 52.80 52.70 53.51 53.22 52.23 51.14 50.10 48.28 47.54
26.11 31.07 28.54 25.80 26.96 27.52 28.18 24.80 24.02 23.70 21.05 12.70 18.96 18.24 19.68 25.55 29.82 34.09 38.24 40.44 42.02 43.58 44.98 45.95 47.26 48.09 48.09 49.51 49.95 53.13 53.89 54.15 54.42 53.75 53.33 52.52 52.33 53.53 53.40 51.49 50.03 49.78 47.97 46.77
24.71 25.03 28.99 29.23 25.24 28.22 25.69 20.53 12.03 11.37 12.01 11.64 22.85 18.53 21.06 29.18 32.05 34.24 38.22 39.92 41.98 44.22 44.21 44.95 45.52 46.71 47.27 47.95 47.87 50.47 52.51 52.91 53.86 53.62 53.46 52.89 52.72 53.51 53.34 52.33 51.50 50.18 47.87 46.43
15.66 13.41 24.28 28.06 24.26 20.77 21.67 21.67 14.39 6.84 9.19 14.05 23.92 15.11 22.52 31.81 33.84 38.21 37.09 40.30 42.12 42.63 43.22 43.69 44.68 45.48 45.97 46.68 48.29 47.83 48.79 50.78 52.86 53.57 52.72 52.95 52.29 52.77 53.62 53.69 52.14 50.33 48.54 47.57
15.64 15.56 26.37 27.86 28.41 26.01 23.36 19.76 25.65 17.44 18.02 13.91 18.50 24.02 29.93 32.32 32.07 33.97 34.02 36.46 40.17 38.52 38.64 39.11 39.39 39.41 39.20 39.42 40.27 41.93 45.39 47.99 50.49 52.03 52.20 51.85 51.59 51.04 51.80 53.26 51.64 49.83 48.80 47.49
21.22 13.80 23.89 26.95 28.19 28.82 25.39 27.38 18.66 20.09 9.06 7.86 16.51 18.76 16.20 20.97 22.59 25.51 27.86 30.93 33.08 34.46 35.12 35.45 35.39 35.05 34.52 33.74 34.78 36.48 38.80 41.42 45.99 50.62 50.98 50.49 50.54 50.49 50.75 50.45 48.79 48.37 46.70 45.75
24.02 19.68 18.32 24.24 21.95 20.06 22.66 18.70 20.09 22.80 19.38 12.34 11.10 14.30 21.03 20.00 22.01 23.38 25.37 27.32 27.44 28.30 30.27 30.60 31.08 31.13 30.88 31.75 31.99 32.27 32.06 32.08 35.40 42.29 49.42 48.40 48.31 48.44 45.50 45.80 45.43 39.11 37.17 37.28
23.82 19.76 13.61 18.00 25.89 27.91 24.55 20.72 19.45 15.38 15.07 19.34 16.97 14.08 22.90 22.34 22.61 23.47 23.41 25.18 27.71 28.60 28.20 28.52 29.09 29.69 30.25 30.86 31.37 31.56 32.12 32.68 33.58 35.27 41.54 42.87 43.72 42.27 37.24 37.64 36.77 37.03 37.15 36.34
23.67 18.80 12.42 16.22 21.79 26.80 19.38 20.41 18.59 19.39 19.70 17.21 14.81 14.60 23.78 22.81 21.62 22.32 22.15 23.89 25.02 25.93 26.72 27.04 28.54 29.59 29.56 29.44 29.50 30.08 31.45 31.72 32.80 33.76 35.38 36.48 36.59 37.15 35.94 35.52 35.49 36.81 37.70 36.50
27.25 21.19 16.12 10.62 14.34 19.46 16.97 17.18 17.29 19.85 18.10 18.89 17.80 16.08 17.11 19.39 18.84 20.33 21.45 23.40 24.32 24.58 24.81 25.46 27.55 28.46 29.56 29.48 28.85 28.87 30.07 31.35 32.08 32.91 33.64 33.75 34.13 34.78 35.02 35.18 35.29 36.48 36.47 35.52
23.59 16.13 17.53 18.20 19.23 19.52 18.49 16.24 15.56 13.13 15.62 14.95 14.75 13.01 15.52 19.35 19.30 20.63 21.87 22.41 22.39 22.32 22.96 23.62 25.17 27.77 28.74 29.26 29.48 29.74 29.81 30.55 31.43 31.93 32.21 32.01 32.84 33.46 33.62 33.67 33.82 34.60 35.05 35.07
25.09 16.42 17.85 14.55 20.64 21.47 18.00 17.67 16.64 14.09 13.60 15.39 17.70 15.35 19.96 22.96 22.47 20.37 20.56 20.84 20.33 20.65 21.75 22.98 24.57 27.16 27.51 27.77 28.56 29.37 29.44 30.04 30.91 29.83 29.58 31.19 31.84 32.21 32.35 32.77 32.89 33.17 33.04 33.17
21.16 18.91 16.81 13.14 19.02 19.05 15.57 15.69 16.17 15.48 15.09 14.53 11.20 15.42 19.35 19.10 20.54 19.04 19.44 20.48 19.92 20.11 21.27 22.23 23.35 25.56 26.62 26.72 27.65 27.79 28.79 29.82 29.34 29.20 29.10 28.81 29.05 28.89 29.60 30.57 31.20 31.41 31.77 32.17
21.37 18.52 18.90 13.96 17.25 8.12 17.83 21.94 20.50 16.77 15.75 16.49 16.61 16.89 18.65 18.85 23.21 21.10 21.28 20.37 19.89 20.24 20.67 21.63 23.11 24.17 25.99 26.74 27.20 27.99 28.96 28.57 28.44 28.16 28.25 28.46 27.88 27.12 27.44 27.83 27.94 28.71 29.86 29.94
24.87 20.61 16.43 13.06 13.83 16.13 18.21 19.42 17.35 15.44 15.39 17.63 15.93 16.71 17.99 20.88 24.24 22.25 21.14 22.04 21.11 20.94 21.85 22.77 24.06 24.67 25.31 25.73 27.44 27.54 26.77 27.00 26.78 26.12 26.39 27.12 28.30 27.94 27.58 26.52 26.54 27.70 27.95 28.27
24.06 22.85 17.87 15.88 11.38 8.69 16.96 20.42 22.54 21.80 14.53 18.45 18.04 16.64 17.12 20.65 17.81 18.76 20.11 21.48 21.45 21.62 21.87 22.49 23.74 24.28 24.27 25.66 26.64 25.93 24.91 24.32 23.41 23.98 24.82 26.13 26.70 26.73 26.78 27.49 27.44 28.35 28.45 27.43
17.54 18.33 15.39 15.90 13.88 16.49 19.31 21.32 22.65 13.70 14.26 18.25 18.55 18.44 17.91 16.40 17.82 19.77 21.15 20.59 21.86 22.02 21.47 22.70 22.93 22.11 22.68 24.79 25.57 23.52 22.84 21.69 23.16 23.62 24.12 24.27 25.21 25.27 25.79 25.66 26.36 26.66 26.33 26.50
16.34 15.14 16.14 16.72 13.44 10.71 20.63 22.09 16.69 17.12 19.13 19.32 19.93 19.74 17.98 19.13 19.50 19.97 20.68 20.02 20.25 19.84 21.04 21.66 20.93 20.99 21.33 22.20 23.33 21.69 19.97 21.91 22.57 22.54 22.16 22.36 23.46 24.32 24.55 24.57 24.85 25.21 25.54 25.20
16.93 20.65 17.61 18.27 18.58 21.47 21.09 19.24 20.00 19.41 17.51 20.13 19.95 20.65 19.80 19.70 19.05 19.97 19.55 19.64 19.52 19.10 19.04 20.11 20.30 20.14 20.11 20.23 20.73 19.73 19.80 20.79 21.10 20.95 20.12 21.15 22.14 22.58 23.23 23.65 22.86 23.04 24.27 23.94
23.40 23.56 19.08 19.39 21.92 21.28 21.03 21.47 20.34 20.09 19.96 20.64 20.96 20.08 20.06 18.08 18.79 18.71 18.94 18.37 18.41 18.37 17.24 17.96 17.66 17.50 17.57 18.65 19.31 19.07 19.44 19.73 20.77 20.40 19.59 19.92 20.32 20.77 21.50 22.41 22.76 23.12 22.74 22.75
22.84 22.28 20.05 19.55 22.03 19.96 20.72 21.73 21.04 20.22 19.93 19.71 20.16 18.96 17.65 17.84 17.94 17.32 17.54 16.91 17.07 17.08 16.56 16.57 15.42 15.58 15.70 16.20 16.95 17.52 17.33 18.20 19.21 19.18 19.18 20.04 20.18 20.44 20.32 20.47 21.30 21.23 21.62 23.23
24.23 21.93 18.69 19.77 23.83 22.18 21.54 22.83 21.04 19.87 19.17 19.00 18.16 17.61 17.33 16.32 15.85 16.05 16.65 16.37 15.36 14.65 14.64 13.69 12.92 12.84 13.21 13.74 13.88 14.66 14.06 14.40 14.94 18.79 19.71 19.94 19.51 19.59 19.49 20.01 20.26 21.91 22.06 22.96
MSLP
1010.20 1009.93 1009.39 1008.41 1008.04 1007.51 1007.04 1006.55 1005.00 1003.93 1002.84 1001.62 1000.64 999.76 999.10 998.42 997.97 997.57 997.18 996.98 996.58 996.52 997.09 997.79 998.36 999.20 1000.06 1000.81 1001.33 1001.82 1002.69 1003.74 1004.73 1005.38 1006.08 1007.13 1007.76 1008.61 1009.41 1009.86 1010.36 1010.93 1011.75 1012.38
1010.35 1008.91 1007.91 1008.17 1007.69 1007.40 1007.20 1006.44 1005.20 1004.19 1003.10 1002.27 1001.29 999.89 999.23 998.70 997.53 996.92 996.68 996.41 996.16 996.27 996.39 996.97 997.74 998.67 999.35 999.95 1000.48 1000.98 1001.68 1003.03 1004.05 1004.75 1005.29 1005.99 1006.88 1007.84 1008.58 1009.34 1010.13 1010.64 1011.22 1011.79
1010.14 1008.02 1008.44 1008.10 1007.41 1007.16 1006.66 1006.25 1005.58 1004.69 1003.69 1002.81 1002.09 1000.13 999.86 998.99 997.87 996.93 996.35 996.09 996.16 995.90 996.00 996.46 997.27 998.29 999.03 999.27 999.72 1000.24 1000.90 1002.18 1003.29 1004.09 1005.10 1005.75 1006.58 1007.58 1008.36 1008.92 1009.35 1009.81 1010.44 1011.12
1009.62 1008.00 1007.66 1007.06 1006.74 1006.73 1005.94 1005.88 1005.33 1004.72 1004.10 1002.72 1002.34 999.74 999.25 998.33 996.75 996.19 995.61 995.71 995.70 995.92 996.05 996.23 996.61 997.57 998.21 998.58 999.20 999.76 1000.50 1001.63 1002.74 1003.83 1004.50 1005.00 1005.48 1006.02 1006.48 1007.53 1008.49 1009.36 1009.96 1010.57
1008.32 1007.83 1007.61 1006.97 1006.37 1006.13 1005.39 1005.41 1005.07 1004.80 1004.23 1003.55 1002.52 1001.12 998.61 997.83 995.90 995.06 994.46 994.58 994.92 995.38 995.68 995.78 996.21 996.73 997.35 998.06 998.69 999.32 1000.07 1001.24 1002.20 1003.02 1003.62 1004.23 1004.71 1005.18 1006.04 1006.85 1007.65 1008.47 1009.24 1009.81
1008.37 1007.04 1006.82 1006.14 1005.83 1005.92 1005.31 1004.91 1004.56 1004.36 1003.98 1002.38 1000.96 1000.32 997.18 996.27 995.09 993.91 993.58 993.42 993.90 994.41 994.86 995.41 995.74 996.66 997.25 997.69 998.61 999.39 1000.00 1000.48 1001.33 1002.25 1002.88 1003.41 1003.82 1004.35 1005.08 1005.82 1006.70 1007.53 1008.33 1008.96
1006.92 1006.08 1005.47 1005.78 1005.52 1004.76 1004.84 1004.58 1004.18 1003.15 1002.36 1000.02 999.11 998.49 996.92 995.29 994.72 994.41 992.80 992.50 993.10 993.86 994.36 994.96 995.61 996.46 997.11 997.58 998.21 998.89 999.48 999.89 1000.34 1001.04 1001.75 1002.20 1002.79 1003.50 1003.90 1004.58 1005.43 1006.42 1007.37 1008.18
1007.87 1005.53 1005.40 1005.25 1005.47 1005.40 1004.61 1004.30 1002.96 1001.67 1000.71 998.91 997.43 996.97 994.88 994.78 994.35 993.89 993.89 993.74 993.43 994.07 994.79 995.43 996.00 996.79 997.42 998.07 998.35 998.96 999.21 999.53 999.99 1000.31 1000.79 1001.42 1002.36 1002.92 1003.27 1003.67 1004.47 1005.26 1005.94 1006.75
1008.77 1006.75 1005.48 1004.55 1004.62 1004.99 1003.39 1003.01 1002.02 1001.85 1000.77 999.92 998.35 996.15 994.86 994.94 994.97 995.44 995.78 995.84 995.15 996.06 997.25 997.95 998.52 999.00 999.76 1000.16 1000.22 1000.07 999.73 999.61 999.74 1000.02 1000.56 1001.05 1001.87 1002.50 1002.58 1002.86 1003.83 1004.59 1005.33 1006.18
1010.22 1007.70 1005.30 1004.32 1004.26 1004.19 1004.14 1003.27 1002.26 1001.37 1000.33 999.19 997.69 997.65 998.84 998.74 999.26 999.48 998.86 998.56 998.70 999.06 999.53 1000.00 1000.51 1000.90 1001.47 1001.90 1001.87 1001.52 1001.13 1000.66 1000.21 999.93 1000.24 1000.72 1001.32 1001.85 1002.37 1002.89 1003.39 1004.19 1005.02 1005.71
1010.80 1009.47 1006.26 1005.50 1004.28 1004.27 1003.80 1003.67 1003.32 1001.41 1000.59 999.28 999.11 1000.44 1002.06 1002.13 1002.23 1002.00 1001.58 1001.47 1001.67 1001.75 1001.68 1001.93 1002.18 1002.33 1002.63 1002.57 1002.47 1002.31 1002.11 1001.74 1001.20 1000.55 1000.28 1000.68 1001.08 1001.57 1002.27 1002.75 1003.18 1003.95 1005.00 1005.95
1010.97 1009.87 1007.34 1005.49 1004.12 1004.45 1005.08 1004.50 1004.15 1002.56 1000.77 1000.11 1000.81 1002.67 1003.75 1004.03 1004.22 1004.20 1003.92 1003.38 1003.14 1003.03 1003.13 1003.10 1002.87 1003.09 1003.07 1003.01 1002.82 1002.75 1002.50 1002.09 1001.65 1001.22 1000.81 1000.76 1001.16 1001.54 1002.11 1002.74 1003.44 1004.00 1004.81 1005.68
1011.13 1009.45 1007.57 1005.04 1004.82 1004.46 1005.20 1005.17 1004.57 1003.25 1002.39 1001.09 1001.70 1003.33 1004.70 1005.11 1005.45 1005.42 1005.05 1004.59 1004.42 1004.33 1004.23 1003.93 1003.66 1003.64 1003.57 1003.47 1003.37 1003.28 1002.92 1002.52 1002.05 1001.56 1001.30 1001.20 1001.46 1001.76 1002.18 1002.76 1003.41 1003.98 1004.63 1005.48
1010.64 1009.53 1008.67 1007.64 1006.60 1006.60 1006.17 1005.78 1004.66 1003.00 1002.46 1002.04 1003.00 1004.11 1005.16 1005.55 1005.93 1005.95 1005.81 1005.47 1005.32 1005.25 1004.73 1004.53 1004.29 1004.12 1003.89 1003.87 1003.83 1003.66 1003.27 1002.94 1002.59 1002.24 1002.00 1001.96 1002.08 1002.27 1002.57 1002.99 1003.48 1003.91 1004.47 1005.07
1010.71 1009.34 1008.72 1007.86 1007.22 1006.95 1007.28 1006.87 1006.39 1005.49 1005.00 1004.42 1005.28 1005.80 1006.65 1006.91 1007.05 1006.90 1006.74 1006.17 1005.93 1005.67 1005.42 1005.29 1005.10 1004.76 1004.47 1004.32 1004.25 1004.02 1003.71 1003.38 1003.12 1002.92 1002.76 1002.84 1002.81 1002.91 1003.08 1003.40 1003.78 1004.02 1004.46 1004.94
1010.44 1009.32 1008.70 1007.43 1006.66 1006.60 1007.01 1007.61 1007.73 1007.47 1007.21 1006.59 1006.54 1007.21 1007.99 1007.70 1007.90 1007.86 1007.61 1007.20 1006.95 1006.72 1006.49 1006.17 1005.85 1005.40 1005.13 1005.07 1004.90 1004.58 1004.26 1003.99 1003.65 1003.45 1003.50 1003.51 1003.43 1003.46 1003.62 1003.85 1004.10 1004.41 1004.66 1005.07
1010.22 1009.57 1008.59 1006.99 1006.67 1006.53 1007.12 1008.14 1008.52 1008.97 1009.12 1008.82 1008.46 1009.07 1008.78 1008.40 1008.45 1008.51 1008.43 1008.31 1008.06 1007.79 1007.51 1007.07 1006.72 1006.29 1005.94 1005.79 1005.58 1005.15 1004.89 1004.64 1004.40 1004.18 1004.04 1004.16 1004.21 1004.15 1004.13 1004.23 1004.52 1004.80 1005.00 1005.27
1009.87 1009.65 1008.82 1007.35 1006.46 1006.69 1007.90 1008.57 1008.92 1009.31 1009.85 1009.99 1009.87 1009.65 1009.37 1009.20 1008.90 1009.35 1009.46 1009.19 1008.98 1008.79 1008.49 1008.18 1007.73 1007.19 1006.81 1006.54 1006.19 1005.79 1005.49 1005.30 1005.13 1004.97 1004.85 1004.68 1004.84 1004.87 1004.79 1004.84 1005.10 1005.33 1005.48 1005.64
1009.93 1009.53 1008.59 1007.85 1006.91 1007.27 1007.79 1008.72 1009.31 1009.71 1009.99 1010.40 1010.36 1010.12 1009.76 1009.02 1008.79 1009.13 1009.87 1009.86 1009.80 1009.59 1009.21 1008.71 1008.26 1007.86 1007.51 1007.21 1006.82 1006.48 1006.32 1006.15 1005.95 1005.85 1005.85 1005.60 1005.37 1005.51 1005.55 1005.63 1005.72 1005.91 1006.08 1006.20
1009.68 1009.53 1009.15 1007.93 1007.38 1007.45 1008.58 1009.02 1009.46 1009.80 1010.22 1010.78 1010.93 1010.92 1010.59 1009.53 1009.21 1010.14 1010.49 1010.52 1010.40 1010.21 1009.96 1009.48 1009.01 1008.70 1008.28 1007.82 1007.41 1007.07 1007.05 1007.03 1006.99 1006.81 1006.76 1006.42 1006.22 1006.09 1006.28 1006.30 1006.43 1006.46 1006.59 1006.85
1009.24 1008.80 1008.51 1008.01 1007.80 1008.19 1009.10 1009.31 1009.55 1010.33 1011.80 1011.27 1011.45 1011.48 1011.37 1011.15 1011.66 1011.49 1011.23 1010.96 1010.74 1010.53 1010.29 1009.98 1009.70 1009.39 1009.11 1008.68 1008.20 1007.98 1007.92 1007.87 1007.88 1007.73 1007.48 1007.20 1007.04 1006.95 1007.01 1007.07 1007.05 1007.21 1007.25 1007.49
1009.43 1009.04 1008.42 1008.37 1008.30 1008.95 1009.76 1009.48 1010.50 1011.59 1011.46 1011.69 1011.73 1011.83 1011.79 1011.77 1011.65 1011.59 1011.43 1011.33 1011.07 1010.86 1010.60 1010.47 1010.33 1010.16 1009.96 1009.57 1008.98 1008.88 1008.86 1008.84 1008.62 1008.37 1008.16 1007.92 1007.90 1007.59 1007.63 1007.70 1007.72 1007.75 1007.95 1008.02
1009.18 1009.17 1009.32 1009.16 1008.78 1009.49 1010.22 1010.82 1011.55 1012.00 1012.22 1012.03 1012.16 1012.17 1012.20 1011.94 1011.72 1011.51 1011.46 1011.51 1011.44 1011.37 1011.28 1011.11 1010.88 1010.71 1010.48 1010.31 1010.03 1009.83 1009.76 1009.49 1009.15 1008.89 1008.76 1008.63 1008.55 1008.49 1008.32 1008.24 1008.49 1008.39 1008.52 1008.51
1008.62 1009.13 1009.16 1009.10 1008.84 1009.44 1010.38 1011.13 1011.66 1012.11 1012.24 1012.28 1012.39 1012.46 1012.45 1012.35 1012.10 1011.99 1011.98 1012.04 1012.05 1012.10 1012.04 1011.94 1011.72 1011.49 1011.22 1010.97 1010.73 1010.62 1010.35 1010.03 1009.67 1009.41 1009.37 1009.31 1009.13 1008.99 1008.96 1009.08 1009.09 1009.04 1009.06 1009.12
1008.78 1009.06 1008.56 1008.47 1008.67 1009.70 1010.27 1010.74 1011.40 1012.02 1012.43 1012.55 1012.77 1012.90 1012.82 1012.74 1012.76 1012.82 1012.61 1012.81 1012.89 1012.88 1012.87 1012.73 1012.60 1012.42 1012.11 1011.83 1011.39 1011.19 1011.02 1010.64 1010.16 1009.90 1009.73 1009.53 1009.45 1009.44 1009.50 1009.57 1009.55 1009.51 1009.54 1009.47
1007.81 1007.53 1007.89 1007.53 1007.87 1008.75 1009.61 1010.45 1011.49 1011.97 1012.37 1012.75 1012.98 1013.08 1013.24 1013.40 1013.69 1013.54 1013.30 1013.49 1013.76 1013.66 1013.54 1013.34 1013.26 1013.16 1012.91 1012.45 1012.05 1011.72 1011.50 1011.22 1010.84 1010.13 1009.79 1009.66 1009.62 1009.58 1009.64 1009.72 1009.75 1009.88 1009.88 1009.84
Wind_Speed
17 13 17 23 25 28 27 27 33 29 28 28 32 29 28 24 26 28 25 27 24 24 24 22 18 16 15 14 15 17 18 17 12 10 11 11 11 10 8 7 10 12 9 11
19 21 26 24 23 23 21 23 26 27 31 27 28 28 25 29 29 26 27 23 24 24 21 19 14 13 16 17 18 18 17 17 14 10 10 9 10 8 9 9 10 11 12 13
21 28 24 25 23 25 24 25 25 27 27 28 28 31 29 28 28 29 26 24 25 23 19 16 13 13 13 15 17 17 17 18 15 15 9 5 6 6 7 9 10 13 15 12
16 20 17 21 26 24 25 25 25 26 23 16 20 21 28 27 28 29 27 25 23 24 21 18 18 15 15 14 13 15 14 16 15 15 12 13 12 11 10 11 10 11 14 14
17 20 20 21 24 22 21 21 20 22 20 21 21 15 18 24 28 24 27 27 25 24 22 21 19 15 12 13 12 14 14 15 15 16 15 14 15 11 9 9 14 14 14 15
23 18 16 15 19 17 17 20 17 17 15 17 19 18 18 22 25 19 26 27 25 25 22 19 16 12 9 8 10 10 13 16 17 18 19 19 20 16 12 13 12 12 12 12
17 11 4 7 10 11 17 11 9 10 12 15 16 17 20 15 27 28 24 24 22 21 21 15 17 14 12 10 13 12 15 17 19 20 21 22 22 21 18 16 13 15 12 12
14 19 14 9 20 13 22 8 8 10 12 15 16 8 18 24 28 9 8 11 12 13 2 4 3 3 4 2 4 9 12 15 16 18 20 18 17 12 13 15 12 12 13 14
14 15 28 14 4 5 3 7 16 13 18 13 12 20 23 16 24 17 10 8 11 12 8 7 8 8 7 8 8 9 7 10 13 15 14 15 13 15 14 15 14 11 13 11
8 20 9 10 15 1 11 11 6 6 5 13 12 9 9 14 11 9 10 11 10 9 6 6 7 7 8 8 8 9 9 9 7 10 12 11 13 13 13 9 12 12 10 12
12 6 15 17 12 17 7 10 6 7 5 8 10 5 7 10 11 9 10 9 7 7 8 8 8 8 6 6 6 7 7 8 8 7 8 10 10 11 8 7 7 8 7 7
6 8 13 21 18 1 6 13 12 8 3 6 2 3 5 6 8 9 8 8 10 9 10 9 8 7 7 7 7 7 7 6 5 5 5 4 5 6 7 7 7 10 10 11
7 5 13 11 2 4 11 18 13 12 9 11 6 5 7 8 9 11 10 9 9 10 11 10 9 8 8 7 7 7 7 7 6 4 2 3 4 6 7 7 8 10 11 11
9 7 9 12 17 17 11 20 22 4 4 9 3 6 13 13 14 14 12 12 11 10 11 11 9 8 8 8 7 7 7 6 6 5 4 3 1 2 4 5 8 10 10 11
4 9 12 15 18 17 5 16 20 16 15 8 8 8 14 11 12 14 13 13 14 15 14 13 11 9 8 8 8 8 7 7 6 5 5 4 4 3 4 4 5 6 8 9
5 7 8 14 6 6 5 11 12 12 13 11 9 8 14 8 8 13 14 15 15 15 15 14 13 11 10 9 9 8 9 8 6 6 6 4 3 4 4 4 5 6 6 7
4 5 6 5 7 9 3 9 5 3 10 8 9 7 11 7 8 15 14 14 15 15 14 14 13 11 10 10 10 9 9 8 7 6 6 5 4 4 4 5 5 6 7 8
6 4 4 7 11 1 3 5 3 2 6 8 7 10 10 10 1 12 14 14 14 13 13 12 10 10 10 9 9 9 9 9 8 8 7 6 5 5 5 6 6 6 6 8
5 5 4 5 6 1 3 5 5 5 4 9 9 13 12 14 2 7 15 14 12 12 11 10 9 9 9 8 8 7 8 8 8 8 7 7 6 5 5 6 6 5 6 6
3 6 5 3 5 4 4 9 5 5 2 9 9 10 13 14 6 8 14 13 11 10 10 10 10 9 9 9 9 8 8 8 8 9 8 7 6 6 5 5 5 3 5 5
5 3 5 6 4 2 4 9 4 4 5 7 8 8 9 7 5 9 11 10 10 9 10 11 9 9 10 10 8 8 8 9 8 7 7 7 7 6 6 4 5 4 5 5
4 4 2 3 4 1 5 2 4 3 4 5 6 7 8 7 6 6 6 7 8 10 11 11 9 8 10 11 9 8 9 8 7 6 6 6 6 5 4 4 4 4 3 5
3 2 4 3 3 2 2 2 1 1 3 4 5 5 6 6 8 9 9 10 10 11 10 9 9 8 7 9 9 8 8 7 6 6 5 6 5 5 5 4 3 2 2 2
4 4 4 3 5 4 5 4 2 2 3 3 3 4 5 7 8 8 8 9 9 9 10 9 9 8 8 8 8 8 8 7 6 5 5 4 4 4 4 3 3 1 1 1
10 3 4 6 4 1 6 6 2 3 3 1 1 2 4 6 6 6 7 7 8 8 8 8 8 8 8 9 8 7 7 7 6 4 3 3 3 3 2 2 3 2 3 3
8 8 6 4 6 1 3 8 5 5 3 1 0 1 3 4 5 7 6 6 6 7 8 8 8 8 8 8 8 7 6 5 6 5 2 2 2 1 1 0 2 2 2 1
Wind_Direction
273 285 256 245 244 250 250 253 269 271 274 252 253 266 264 249 246 241 247 240 245 232 229 235 228 199 195 202 203 200 183 190 184 174 171 170 178 178 178 178 172 168 175 187
288 266 260 264 273 276 275 281 277 273 266 266 274 273 272 255 260 249 241 247 242 242 234 228 216 192 190 198 210 206 196 187 192 183 188 183 183 187 175 168 173 178 181 188
272 269 284 285 266 259 255 254 262 267 269 265 266 265 258 262 265 248 257 247 250 253 238 229 220 197 201 206 207 207 197 187 192 198 184 178 150 149 171 179 181 189 184 185
279 277 277 264 256 261 263 262 263 262 267 265 255 261 250 252 255 242 234 241 239 246 247 240 236 198 205 209 209 206 196 188 189 188 183 182 181 184 195 189 182 186 187 182
264 300 289 278 272 269 267 259 262 264 264 270 258 261 265 251 252 245 236 227 231 238 241 235 238 240 206 204 203 197 191 188 187 189 193 194 203 203 182 189 186 187 188 188
273 266 262 265 281 273 269 259 260 262 257 256 245 235 250 234 242 245 229 225 226 231 230 229 234 228 218 179 187 189 190 191 189 192 197 201 206 201 200 188 187 190 189 186
330 334 260 253 287 257 239 223 237 236 218 247 240 226 238 258 226 242 254 215 227 228 230 224 223 219 224 210 183 189 194 200 197 196 201 202 206 208 203 191 192 186 186 191
341 328 333 320 297 289 285 249 237 270 250 272 264 224 242 226 246 209 301 316 238 231 27 303 264 318 349 336 211 195 208 213 206 203 206 206 207 210 211 203 197 194 192 194
320 297 312 306 359 267 352 226 251 247 255 276 273 272 246 258 221 251 321 301 253 66 42 17 20 31 11 357 349 343 293 228 219 213 210 207 205 209 212 207 201 198 192 188
305 298 309 313 316 153 292 318 278 200 259 257 249 270 9 8 11 3 11 19 15 23 21 13 5 6 359 344 332 325 317 311 295 216 207 207 206 206 210 211 196 200 191 178
294 263 291 306 317 315 302 340 326 269 240 277 280 78 4 356 359 360 26 29 22 17 359 2 352 357 343 339 342 333 333 320 296 291 211 204 207 203 196 192 179 155 130 146
320 290 285 293 299 264 331 320 316 290 238 244 255 77 28 11 12 0 10 21 15 22 14 13 14 360 360 1 357 350 341 336 318 283 258 188 180 160 158 161 149 149 156 161
316 260 306 312 166 345 335 344 320 265 254 265 310 88 41 40 22 14 10 18 20 15 12 15 14 15 8 7 3 351 352 348 344 339 305 109 148 159 167 162 156 164 167 173
311 263 265 278 291 312 324 353 351 223 284 268 315 63 10 13 11 7 11 15 20 15 17 15 8 6 9 12 8 0 4 0 355 6 31 48 86 134 160 159 170 176 176 171
272 276 293 285 282 285 11 10 4 16 357 21 55 50 6 9 5 1 3 13 17 16 14 12 4 2 11 11 10 10 14 15 9 20 44 47 49 66 114 143 163 165 176 181
262 281 322 297 305 269 1 15 13 15 358 12 20 60 359 358 24 15 13 13 13 11 6 3 5 4 11 8 4 9 13 15 24 47 35 33 72 86 91 115 140 151 149 152
276 300 308 287 318 302 168 1 23 47 18 334 20 344 334 359 36 24 11 12 10 7 2 359 0 357 10 8 1 9 8 17 32 45 56 50 52 77 81 104 121 137 145 144
282 276 274 292 300 41 75 42 277 128 60 11 359 354 355 342 76 47 21 8 7 2 1 359 357 357 8 7 4 6 11 20 29 37 43 59 67 63 71 90 97 103 123 130
248 272 290 297 314 151 161 30 350 356 42 18 2 356 353 333 183 67 18 5 6 0 353 358 359 2 6 5 3 15 21 23 28 30 25 29 45 68 78 72 77 82 99 105
226 237 265 305 290 350 36 348 338 303 220 10 10 6 356 354 21 7 352 357 360 7 356 360 0 5 8 6 6 22 30 31 28 22 15 24 34 48 49 67 67 60 73 84
309 318 297 310 307 122 38 330 340 266 23 356 358 358 1 11 353 323 337 349 360 7 2 8 3 7 5 359 5 27 30 28 16 15 20 24 30 45 52 52 64 61 84 91
290 319 341 288 264 311 3 238 333 8 335 355 347 1 346 340 348 340 351 355 2 4 8 11 5 8 5 4 6 19 25 6 9 16 25 24 17 28 39 53 57 69 93 110
273 310 309 264 333 94 20 70 81 312 303 330 324 351 341 342 6 9 9 9 10 10 6 4 1 360 12 8 13 14 8 0 1 11 18 21 26 24 25 44 53 68 72 107
225 168 233 315 166 220 187 174 181 230 271 321 331 340 348 356 9 13 19 12 8 8 8 360 359 359 359 0 5 4 356 354 347 2 11 7 8 27 33 27 20 67 92 116
278 213 250 257 232 204 223 223 188 189 208 295 12 4 20 7 14 7 16 10 2 0 1 1 359 350 350 346 349 351 344 344 344 348 352 354 9 9 28 31 20 16 26 357
203 225 206 250 140 232 124 177 171 194 182 146 207 124 48 23 357 353 4 1 346 344 351 354 353 343 335 338 335 333 335 335 326 318 320 344 328 355 357 296 120 65 10 202